Time,TemperatureF,DewpointF,PressureIn,WindDirection,WindDirectionDegrees,WindSpeedMPH,WindSpeedGustMPH,Humidity,HourlyPrecipIn,Conditions,Clouds,dailyrainin,SoftwareType,DateUTC
2013-03-23 00:01:00,20.8,8.0,29.52,West,270,0.0,0.1,57,0.00,CLR,,0.00,WeatherDisplay:10.37,2013-03-23 06:01:00,
2013-03-23 00:06:00,21.0,8.2,29.52,West,270,0.0,0.0,57,0.00,CLR,,0.00,WeatherDisplay:10.37,2013-03-23 06:06:00,
2013-03-23 00:11:00,21.0,8.2,29.53,NW,315,0.0,0.0,57,0.00,CLR,,0.00,WeatherDisplay:10.37,2013-03-23 06:11:00,
2013-03-23 00:16:00,20.8,8.0,29.53,NNW,338,0.0,0.0,57,0.00,CLR,,0.00,WeatherDisplay:10.37,2013-03-23 06:16:00,
2013-03-23 00:21:00,21.0,8.2,29.53,SE,135,0.0,0.0,57,0.00,CLR,,0.00,WeatherDisplay:10.37,2013-03-23 06:21:00,
2013-03-23 00:26:00,21.0,8.2,29.53,ENE,68,0.0,0.0,57,0.00,CLR,,0.00,WeatherDisplay:10.37,2013-03-23 06:26:00,
2013-03-23 00:31:00,21.0,8.2,29.54,SE,135,0.0,0.0,57,0.00,CLR,,0.00,WeatherDisplay:10.37,2013-03-23 06:31:00,
2013-03-23 00:36:00,21.0,8.2,29.54,SW,225,2.3,2.3,57,0.00,CLR,,0.00,WeatherDisplay:10.37,2013-03-23 06:36:00,
2013-03-23 00:41:00,20.7,7.8,29.54,SSW,202,1.1,1.1,57,0.00,CLR,,0.00,WeatherDisplay:10.37,2013-03-23 06:41:00,
2013-03-23 00:46:00,20.5,7.6,29.54,SSW,202,0.0,0.3,57,0.00,CLR,,0.00,WeatherDisplay:10.37,2013-03-23 06:46:00,
2013-03-23 00:51:00,20.5,7.6,29.54,SE,135,1.1,0.0,57,0.00,CLR,,0.00,WeatherDisplay:10.37,2013-03-23 06:51:00,
2013-03-23 00:56:00,20.3,7.5,29.54,NW,315,0.0,0.0,57,0.00,CLR,,0.00,WeatherDisplay:10.37,2013-03-23 06:56:00,
2013-03-23 01:01:00,20.3,7.5,29.54,SW,225,0.0,0.0,57,0.00,CLR,,0.00,WeatherDisplay:10.37,2013-03-23 07:01:00,
2013-03-23 01:06:00,20.3,7.5,29.54,SW,225,0.0,0.0,57,0.00,CLR,,0.00,WeatherDisplay:10.37,2013-03-23 07:06:00,
2013-03-23 01:11:00,20.3,7.5,29.54,WSW,248,0.0,0.0,57,0.00,CLR,,0.00,WeatherDisplay:10.37,2013-03-23 07:11:00,
2013-03-23 01:16:00,20.3,7.5,29.54,NNW,338,0.0,0.1,57,0.00,CLR,,0.00,WeatherDisplay:10.37,2013-03-23 07:16:00,
2013-03-23 01:21:00,20.3,7.5,29.54,West,270,0.0,0.1,57,0.00,CLR,,0.00,WeatherDisplay:10.37,2013-03-23 07:21:00,
2013-03-23 01:26:00,20.3,7.5,29.54,WNW,292,0.0,0.0,57,0.00,CLR,,0.00,WeatherDisplay:10.37,2013-03-23 07:26:00,
2013-03-23 01:31:00,20.3,7.5,29.55,SW,225,0.0,0.0,57,0.00,CLR,,0.00,WeatherDisplay:10.37,2013-03-23 07:31:00,
2013-03-23 01:37:00,20.3,7.5,29.55,SSW,202,0.0,0.0,57,0.00,CLR,,0.00,WeatherDisplay:10.37,2013-03-23 07:37:00,
2013-03-23 01:42:00,20.3,7.5,29.55,SW,225,0.0,0.0,57,0.00,CLR,,0.00,WeatherDisplay:10.37,2013-03-23 07:42:00,
2013-03-23 01:47:00,19.9,7.1,29.55,SW,225,0.0,0.0,57,0.00,CLR,,0.00,WeatherDisplay:10.37,2013-03-23 07:47:00,
2013-03-23 01:52:00,19.9,7.1,29.55,WSW,248,0.0,0.0,57,0.00,CLR,,0.00,WeatherDisplay:10.37,2013-03-23 07:52:00,
2013-03-23 01:57:00,19.9,7.1,29.55,NNW,338,0.0,0.0,57,0.00,CLR,,0.00,WeatherDisplay:10.37,2013-03-23 07:57:00,
2013-03-23 02:02:00,19.9,7.1,29.55,WSW,248,0.0,0.0,57,0.00,CLR,,0.00,WeatherDisplay:10.37,2013-03-23 08:02:00,
2013-03-23 02:07:00,19.9,7.1,29.55,WSW,248,0.0,0.0,57,0.00,CLR,,0.00,WeatherDisplay:10.37,2013-03-23 08:07:00,
2013-03-23 02:12:00,19.9,7.1,29.55,SW,225,0.0,0.0,57,0.00,CLR,,0.00,WeatherDisplay:10.37,2013-03-23 08:12:00,
2013-03-23 02:17:00,19.9,7.1,29.55,WSW,248,0.0,0.0,57,0.00,CLR,,0.00,WeatherDisplay:10.37,2013-03-23 08:17:00,
2013-03-23 02:22:00,19.9,7.1,29.55,SSW,202,0.0,0.0,57,0.00,CLR,,0.00,WeatherDisplay:10.37,2013-03-23 08:22:00,
2013-03-23 02:27:00,19.9,7.1,29.56,SSW,202,0.0,0.0,57,0.00,CLR,,0.00,WeatherDisplay:10.37,2013-03-23 08:27:00,
2013-03-23 02:32:00,19.6,6.4,29.56,WSW,248,0.0,0.0,56,0.00,CLR,,0.00,WeatherDisplay:10.37,2013-03-23 08:32:00,
2013-03-23 02:37:00,19.2,6.1,29.56,WSW,248,0.0,0.0,56,0.00,CLR,,0.00,WeatherDisplay:10.37,2013-03-23 08:37:00,
2013-03-23 02:42:00,19.2,6.1,29.56,West,270,0.0,0.0,56,0.00,CLR,,0.00,WeatherDisplay:10.37,2013-03-23 08:42:00,
2013-03-23 02:47:00,19.2,6.1,29.56,WNW,292,0.0,0.0,56,0.00,CLR,,0.00,WeatherDisplay:10.37,2013-03-23 08:47:00,
2013-03-23 02:52:00,18.9,5.7,29.56,WSW,248,0.0,0.0,56,0.00,CLR,,0.00,WeatherDisplay:10.37,2013-03-23 08:52:00,
2013-03-23 02:57:00,18.9,6.1,29.56,WSW,248,0.0,0.0,57,0.00,CLR,,0.00,WeatherDisplay:10.37,2013-03-23 08:57:00,
2013-03-23 03:02:00,18.5,5.8,29.56,West,270,0.0,0.0,57,0.00,CLR,,0.00,WeatherDisplay:10.37,2013-03-23 09:02:00,
2013-03-23 03:07:00,18.3,5.6,29.56,West,270,0.0,0.0,57,0.00,CLR,,0.00,WeatherDisplay:10.37,2013-03-23 09:07:00,
2013-03-23 03:12:00,18.1,5.4,29.56,West,270,0.0,0.0,57,0.00,CLR,,0.00,WeatherDisplay:10.37,2013-03-23 09:12:00,
2013-03-23 03:17:00,18.1,5.4,29.56,WNW,292,0.0,0.0,57,0.00,CLR,,0.00,WeatherDisplay:10.37,2013-03-23 09:17:00,
2013-03-23 03:22:00,18.1,5.4,29.56,WNW,292,0.0,0.0,57,0.00,CLR,,0.00,WeatherDisplay:10.37,2013-03-23 09:22:00,
2013-03-23 03:27:00,17.6,4.9,29.57,East,90,0.0,0.0,57,0.00,CLR,,0.00,WeatherDisplay:10.37,2013-03-23 09:27:00,
2013-03-23 03:32:00,17.4,4.8,29.57,East,90,0.0,0.0,57,0.00,CLR,,0.00,WeatherDisplay:10.37,2013-03-23 09:32:00,
2013-03-23 03:37:00,17.4,5.1,29.57,East,90,0.0,0.0,58,0.00,CLR,,0.00,WeatherDisplay:10.37,2013-03-23 09:37:00,
2013-03-23 03:42:00,17.4,5.1,29.57,NE,45,0.0,0.0,58,0.00,CLR,,0.00,WeatherDisplay:10.37,2013-03-23 09:42:00,
2013-03-23 03:47:00,17.1,4.8,29.57,East,90,0.0,0.0,58,0.00,CLR,,0.00,WeatherDisplay:10.37,2013-03-23 09:47:00,
2013-03-23 03:52:00,16.9,4.6,29.57,East,90,0.0,0.0,58,0.00,CLR,,0.00,WeatherDisplay:10.37,2013-03-23 09:52:00,
2013-03-23 03:57:00,16.7,4.5,29.57,NE,45,0.0,0.0,58,0.00,CLR,,0.00,WeatherDisplay:10.37,2013-03-23 09:57:00,
2013-03-23 04:02:00,16.7,4.5,29.57,NE,45,0.0,0.0,58,0.00,CLR,,0.00,WeatherDisplay:10.37,2013-03-23 10:02:00,
2013-03-23 04:07:00,16.2,4.0,29.57,ENE,68,0.0,0.0,58,0.00,CLR,,0.00,WeatherDisplay:10.37,2013-03-23 10:07:00,
2013-03-23 04:12:00,16.0,3.8,29.57,ENE,68,0.0,0.0,58,0.00,CLR,,0.00,WeatherDisplay:10.37,2013-03-23 10:12:00,
2013-03-23 04:17:00,16.0,3.8,29.57,ENE,68,0.0,0.0,58,0.00,CLR,,0.00,WeatherDisplay:10.37,2013-03-23 10:17:00,
2013-03-23 04:22:00,15.6,3.4,29.57,NE,45,0.0,0.0,58,0.00,CLR,,0.00,WeatherDisplay:10.37,2013-03-23 10:22:00,
2013-03-23 04:27:00,15.4,3.3,29.57,NE,45,0.0,0.0,58,0.00,CLR,,0.00,WeatherDisplay:10.37,2013-03-23 10:27:00,
2013-03-23 04:32:00,15.3,3.1,29.57,NE,45,0.0,0.0,58,0.00,CLR,,0.00,WeatherDisplay:10.37,2013-03-23 10:32:00,
2013-03-23 04:37:00,14.9,2.8,29.57,NE,45,0.0,0.0,58,0.00,CLR,,0.00,WeatherDisplay:10.37,2013-03-23 10:37:00,
2013-03-23 04:42:00,14.7,2.6,29.57,NE,45,0.0,0.0,58,0.00,CLR,,0.00,WeatherDisplay:10.37,2013-03-23 10:42:00,
2013-03-23 04:47:00,14.5,2.4,29.57,NE,45,0.0,0.0,58,0.00,CLR,,0.00,WeatherDisplay:10.37,2013-03-23 10:47:00,
2013-03-23 04:52:00,14.4,2.6,29.57,NNE,22,0.0,0.0,59,0.00,CLR,,0.00,WeatherDisplay:10.37,2013-03-23 10:52:00,
2013-03-23 04:57:00,14.2,2.5,29.57,NNE,22,0.0,0.0,59,0.00,CLR,,0.00,WeatherDisplay:10.37,2013-03-23 10:57:00,
2013-03-23 05:02:00,14.0,2.3,29.57,ENE,68,0.0,0.0,59,0.00,CLR,,0.00,WeatherDisplay:10.37,2013-03-23 11:02:00,
2013-03-23 05:07:00,13.8,2.1,29.57,NNE,22,0.0,0.0,59,0.00,CLR,,0.00,WeatherDisplay:10.37,2013-03-23 11:07:00,
2013-03-23 05:12:00,13.8,2.1,29.57,NE,45,0.0,0.0,59,0.00,CLR,,0.00,WeatherDisplay:10.37,2013-03-23 11:12:00,
2013-03-23 05:17:00,13.5,1.8,29.57,ENE,68,0.0,0.0,59,0.00,CLR,,0.00,WeatherDisplay:10.37,2013-03-23 11:17:00,
2013-03-23 05:22:00,13.1,1.4,29.57,NE,45,0.0,0.0,59,0.00,CLR,,0.00,WeatherDisplay:10.37,2013-03-23 11:22:00,
2013-03-23 05:27:00,13.1,1.4,29.59,NE,45,0.0,0.0,59,0.00,CLR,,0.00,WeatherDisplay:10.37,2013-03-23 11:27:00,
2013-03-23 05:32:00,13.1,1.4,29.59,NNE,22,0.0,0.0,59,0.00,CLR,,0.00,WeatherDisplay:10.37,2013-03-23 11:32:00,
2013-03-23 05:37:00,12.7,1.1,29.59,NNE,22,0.0,0.0,59,0.00,CLR,,0.00,WeatherDisplay:10.37,2013-03-23 11:37:00,
2013-03-23 05:42:00,12.6,0.9,29.59,NNE,22,0.0,0.0,59,0.00,CLR,,0.00,WeatherDisplay:10.37,2013-03-23 11:42:00,
2013-03-23 05:47:00,12.4,0.8,29.59,NE,45,0.0,0.0,59,0.00,CLR,,0.00,WeatherDisplay:10.37,2013-03-23 11:47:00,
2013-03-23 05:52:00,12.4,0.8,29.59,NE,45,0.0,0.0,59,0.00,CLR,,0.00,WeatherDisplay:10.37,2013-03-23 11:52:00,
2013-03-23 05:57:00,12.4,0.8,29.59,NNE,22,0.0,0.0,59,0.00,CLR,,0.00,WeatherDisplay:10.37,2013-03-23 11:57:00,
2013-03-23 06:02:00,12.0,0.4,29.59,NNE,22,0.0,0.0,59,0.00,CLR,,0.00,WeatherDisplay:10.37,2013-03-23 12:02:00,
2013-03-23 06:07:00,11.8,0.2,29.59,NE,45,0.0,0.0,59,0.00,CLR,,0.00,WeatherDisplay:10.37,2013-03-23 12:07:00,
2013-03-23 06:13:00,11.7,0.4,29.59,NE,45,0.0,0.0,60,0.00,CLR,,0.00,WeatherDisplay:10.37,2013-03-23 12:13:00,
2013-03-23 06:18:00,11.7,0.4,29.59,NE,45,0.0,0.0,60,0.00,CLR,,0.00,WeatherDisplay:10.37,2013-03-23 12:18:00,
2013-03-23 06:23:00,11.3,0.1,29.59,NE,45,0.0,0.0,60,0.00,CLR,,0.00,WeatherDisplay:10.37,2013-03-23 12:23:00,
2013-03-23 06:28:00,11.3,0.1,29.60,NE,45,0.0,0.0,60,0.00,CLR,,0.00,WeatherDisplay:10.37,2013-03-23 12:28:00,
2013-03-23 06:34:00,11.1,-0.1,29.60,NNE,22,0.0,0.0,60,0.00,CLR,,0.00,WeatherDisplay:10.37,2013-03-23 12:34:00,
2013-03-23 06:39:00,10.9,-0.2,29.60,NNE,22,0.0,0.0,60,0.00,CLR,,0.00,WeatherDisplay:10.37,2013-03-23 12:39:00,
2013-03-23 06:44:00,10.9,-0.2,29.60,ENE,68,0.0,0.0,60,0.00,CLR,,0.00,WeatherDisplay:10.37,2013-03-23 12:44:00,
2013-03-23 06:49:00,10.9,-0.2,29.60,NNE,22,0.0,0.0,60,0.00,CLR,,0.00,WeatherDisplay:10.37,2013-03-23 12:49:00,
2013-03-23 06:54:00,10.9,-0.2,29.60,NNE,22,0.0,0.0,60,0.00,CLR,,0.00,WeatherDisplay:10.37,2013-03-23 12:54:00,
2013-03-23 06:59:00,10.9,-0.2,29.60,North,0,0.0,0.0,60,0.00,CLR,,0.00,WeatherDisplay:10.37,2013-03-23 12:59:00,
2013-03-23 07:04:00,10.6,-0.6,29.60,NNE,22,0.0,0.0,60,0.00,CLR,,0.00,WeatherDisplay:10.37,2013-03-23 13:04:00,
2013-03-23 07:09:00,10.6,-0.6,29.60,East,90,0.0,0.0,60,0.00,CLR,,0.00,WeatherDisplay:10.37,2013-03-23 13:09:00,
2013-03-23 07:14:00,10.4,-0.8,29.60,ENE,68,0.0,0.0,60,0.00,CLR,,0.00,WeatherDisplay:10.37,2013-03-23 13:14:00,
2013-03-23 07:19:00,10.2,-0.9,29.60,ENE,68,0.0,0.0,60,0.00,CLR,,0.00,WeatherDisplay:10.37,2013-03-23 13:19:00,
2013-03-23 07:24:00,10.2,-0.9,29.60,ENE,68,0.0,0.0,60,0.00,CLR,,0.00,WeatherDisplay:10.37,2013-03-23 13:24:00,
2013-03-23 07:29:00,10.2,-0.9,29.60,East,90,0.0,0.0,60,0.00,CLR,,0.00,WeatherDisplay:10.37,2013-03-23 13:29:00,
2013-03-23 07:34:00,10.2,-0.9,29.60,SSE,158,0.0,0.0,60,0.00,CLR,,0.00,WeatherDisplay:10.37,2013-03-23 13:34:00,
2013-03-23 07:39:00,10.0,-1.1,29.60,NNW,338,0.0,0.0,60,0.00,CLR,,0.00,WeatherDisplay:10.37,2013-03-23 13:39:00,
2013-03-23 07:44:00,10.0,-1.1,29.60,NE,45,0.0,0.0,60,0.00,CLR,,0.00,WeatherDisplay:10.37,2013-03-23 13:44:00,
2013-03-23 07:49:00,10.2,-0.9,29.61,NE,45,0.0,0.0,60,0.00,CLR,,0.00,WeatherDisplay:10.37,2013-03-23 13:49:00,
2013-03-23 07:54:00,10.2,-0.9,29.61,North,0,0.0,0.0,60,0.00,CLR,,0.00,WeatherDisplay:10.37,2013-03-23 13:54:00,
2013-03-23 07:59:00,10.2,-0.6,29.61,North,0,0.0,0.0,61,0.00,CLR,,0.00,WeatherDisplay:10.37,2013-03-23 13:59:00,
2013-03-23 08:04:00,10.0,-0.7,29.61,North,0,0.0,0.0,61,0.00,CLR,,0.00,WeatherDisplay:10.37,2013-03-23 14:04:00,
2013-03-23 08:09:00,10.2,-0.6,29.59,NNE,22,0.0,0.0,61,0.00,CLR,,0.00,WeatherDisplay:10.37,2013-03-23 14:09:00,
2013-03-23 08:14:00,10.6,-0.2,29.59,NNE,22,0.0,0.0,61,0.00,CLR,,0.00,WeatherDisplay:10.37,2013-03-23 14:14:00,
2013-03-23 08:19:00,10.6,-0.2,29.59,NE,45,0.0,0.0,61,0.00,CLR,,0.00,WeatherDisplay:10.37,2013-03-23 14:19:00,
2013-03-23 08:24:00,10.6,-0.2,29.59,WNW,292,0.0,0.0,61,0.00,CLR,,0.00,WeatherDisplay:10.37,2013-03-23 14:24:00,
2013-03-23 08:29:00,10.9,0.1,29.59,West,270,0.0,0.0,61,0.00,CLR,,0.00,WeatherDisplay:10.37,2013-03-23 14:29:00,
2013-03-23 08:34:00,11.1,0.3,29.59,SW,225,0.0,0.0,61,0.00,CLR,,0.00,WeatherDisplay:10.37,2013-03-23 14:34:00,
2013-03-23 08:39:00,11.3,0.8,29.59,SW,225,0.0,0.0,62,0.00,CLR,,0.00,WeatherDisplay:10.37,2013-03-23 14:39:00,
2013-03-23 08:45:00,11.3,0.8,29.59,SSW,202,0.0,0.0,62,0.00,CLR,,0.00,WeatherDisplay:10.37,2013-03-23 14:45:00,
2013-03-23 08:50:00,11.5,1.0,29.60,SW,225,0.0,0.0,62,0.00,CLR,,0.00,WeatherDisplay:10.37,2013-03-23 14:50:00,
2013-03-23 08:55:00,11.7,1.1,29.60,SW,225,0.0,0.0,62,0.00,CLR,,0.00,WeatherDisplay:10.37,2013-03-23 14:55:00,
2013-03-23 09:00:00,12.2,1.7,29.60,SW,225,0.0,0.0,62,0.00,CLR,,0.00,WeatherDisplay:10.37,2013-03-23 15:00:00,
2013-03-23 09:05:00,13.1,2.5,29.60,West,270,0.0,0.0,62,0.00,CLR,,0.00,WeatherDisplay:10.37,2013-03-23 15:05:00,
2013-03-23 09:10:00,13.3,2.7,29.60,ESE,112,0.0,0.0,62,0.00,CLR,,0.00,WeatherDisplay:10.37,2013-03-23 15:10:00,
2013-03-23 09:15:00,13.8,3.2,29.60,East,90,0.0,0.0,62,0.00,CLR,,0.00,WeatherDisplay:10.37,2013-03-23 15:15:00,
2013-03-23 09:20:00,14.2,3.5,29.60,ENE,68,0.0,0.0,62,0.00,CLR,,0.00,WeatherDisplay:10.37,2013-03-23 15:20:00,
2013-03-23 09:25:00,14.7,4.0,29.60,SSW,202,0.0,0.0,62,0.00,CLR,,0.00,WeatherDisplay:10.37,2013-03-23 15:25:00,
2013-03-23 09:30:00,15.6,4.5,29.60,WSW,248,0.0,0.0,61,0.00,CLR,,0.00,WeatherDisplay:10.37,2013-03-23 15:30:00,
2013-03-23 09:35:00,16.2,5.1,29.60,WNW,292,0.0,0.0,61,0.00,CLR,,0.00,WeatherDisplay:10.37,2013-03-23 15:35:00,
2013-03-23 09:40:00,16.7,5.6,29.60,West,270,0.0,0.0,61,0.00,CLR,,0.00,WeatherDisplay:10.37,2013-03-23 15:40:00,
2013-03-23 09:45:00,17.6,6.4,29.60,West,270,0.0,0.0,61,0.00,CLR,,0.00,WeatherDisplay:10.37,2013-03-23 15:45:00,
2013-03-23 09:50:00,18.1,6.9,29.66,West,270,0.0,0.0,61,0.00,CLR,,0.00,WeatherDisplay:10.37,2013-03-23 15:50:00,
2013-03-23 09:55:00,18.9,7.3,29.66,WSW,248,0.0,0.0,60,0.00,CLR,,0.00,WeatherDisplay:10.37,2013-03-23 15:55:00,
2013-03-23 10:00:00,19.6,7.9,29.66,WNW,292,0.0,0.0,60,0.00,CLR,,0.00,WeatherDisplay:10.37,2013-03-23 16:00:00,
2013-03-23 10:05:00,20.3,8.2,29.66,WSW,248,0.0,0.0,59,0.00,CLR,,0.00,WeatherDisplay:10.37,2013-03-23 16:05:00,
2013-03-23 10:10:00,20.3,8.2,29.66,West,270,0.0,0.0,59,0.00,CLR,,0.00,WeatherDisplay:10.37,2013-03-23 16:10:00,
2013-03-23 10:15:00,20.7,7.8,29.66,WSW,248,0.0,0.0,57,0.00,CLR,,0.00,WeatherDisplay:10.37,2013-03-23 16:15:00,
2013-03-23 10:20:00,21.0,8.2,29.66,WSW,248,0.0,0.0,57,0.00,CLR,,0.00,WeatherDisplay:10.37,2013-03-23 16:20:00,
2013-03-23 10:25:00,21.0,7.8,29.66,SSW,202,0.0,0.0,56,0.00,CLR,,0.00,WeatherDisplay:10.37,2013-03-23 16:25:00,
2013-03-23 10:30:00,21.4,8.1,29.65,SE,135,0.0,0.0,56,0.00,CLR,,0.00,WeatherDisplay:10.37,2013-03-23 16:30:00,
2013-03-23 10:35:00,21.2,7.5,29.65,WSW,248,0.0,0.0,55,0.00,CLR,,0.00,WeatherDisplay:10.37,2013-03-23 16:35:00,
2013-03-23 10:40:00,21.4,7.7,29.65,SSE,158,0.0,0.0,55,0.00,CLR,,0.00,WeatherDisplay:10.37,2013-03-23 16:40:00,
2013-03-23 10:45:00,21.7,7.6,29.65,East,90,0.0,0.0,54,0.00,CLR,,0.00,WeatherDisplay:10.37,2013-03-23 16:45:00,
2013-03-23 10:50:00,21.7,7.6,29.64,SW,225,0.0,0.3,54,0.00,CLR,,0.00,WeatherDisplay:10.37,2013-03-23 16:50:00,
2013-03-23 10:55:00,21.9,7.8,29.64,NW,315,0.0,0.3,54,0.00,CLR,,0.00,WeatherDisplay:10.37,2013-03-23 16:55:00,
2013-03-23 11:00:00,22.1,7.6,29.64,SW,225,0.0,0.0,53,0.00,CLR,,0.00,WeatherDisplay:10.37,2013-03-23 17:00:00,
2013-03-23 11:05:00,22.5,7.5,29.64,SSW,202,3.5,3.5,52,0.00,CLR,,0.00,WeatherDisplay:10.37,2013-03-23 17:05:00,
2013-03-23 11:10:00,22.5,7.5,29.66,WSW,248,0.0,0.3,52,0.00,CLR,,0.00,WeatherDisplay:10.37,2013-03-23 17:10:00,
2013-03-23 11:15:00,22.8,6.9,29.66,NE,45,0.0,0.3,50,0.00,CLR,,0.00,WeatherDisplay:10.37,2013-03-23 17:15:00,
2013-03-23 11:20:00,23.2,7.3,29.66,SSE,158,0.0,0.0,50,0.00,CLR,,0.00,WeatherDisplay:10.37,2013-03-23 17:20:00,
2013-03-23 11:25:00,23.4,7.4,29.66,WSW,248,0.0,0.0,50,0.00,CLR,,0.00,WeatherDisplay:10.37,2013-03-23 17:25:00,
2013-03-23 11:30:00,23.4,7.4,29.66,East,90,2.3,2.3,50,0.00,CLR,,0.00,WeatherDisplay:10.37,2013-03-23 17:30:00,
2013-03-23 11:35:00,24.1,8.5,29.66,NE,45,3.5,3.5,51,0.00,CLR,,0.00,WeatherDisplay:10.37,2013-03-23 17:35:00,
2013-03-23 11:40:00,24.4,8.0,29.66,WNW,292,0.0,1.0,49,0.00,CLR,,0.00,WeatherDisplay:10.37,2013-03-23 17:40:00,
2013-03-23 11:45:00,25.3,8.4,29.66,SSW,202,0.0,0.3,48,0.00,CLR,,0.00,WeatherDisplay:10.37,2013-03-23 17:45:00,
2013-03-23 11:50:00,26.1,9.5,29.66,SW,225,3.5,3.5,49,0.00,CLR,,0.00,WeatherDisplay:10.37,2013-03-23 17:50:00,
2013-03-23 11:55:00,26.2,7.8,29.66,SSE,158,0.0,0.3,45,0.00,CLR,,0.00,WeatherDisplay:10.37,2013-03-23 17:55:00,
2013-03-23 12:00:00,26.4,8.9,29.66,WNW,292,0.0,0.0,47,0.00,CLR,,0.00,WeatherDisplay:10.37,2013-03-23 18:00:00,
2013-03-23 12:05:00,26.8,9.2,29.66,NNW,338,0.0,0.0,47,0.00,CLR,,0.00,WeatherDisplay:10.37,2013-03-23 18:05:00,
2013-03-23 12:10:00,26.8,9.2,29.66,NNW,338,0.0,0.0,47,0.00,CLR,,0.00,WeatherDisplay:10.37,2013-03-23 18:10:00,
2013-03-23 12:15:00,27.5,8.9,29.66,WSW,248,0.0,0.0,45,0.00,CLR,,0.00,WeatherDisplay:10.37,2013-03-23 18:15:00,
2013-03-23 12:20:00,27.9,9.7,29.66,WNW,292,0.0,0.0,46,0.00,CLR,,0.00,WeatherDisplay:10.37,2013-03-23 18:20:00,
2013-03-23 12:25:00,28.2,10.5,29.66,WNW,292,0.0,0.0,47,0.00,CLR,,0.00,WeatherDisplay:10.37,2013-03-23 18:25:00,
2013-03-23 12:30:00,28.2,9.6,29.65,SSW,202,4.6,4.6,45,0.00,CLR,,0.00,WeatherDisplay:10.37,2013-03-23 18:30:00,
2013-03-23 12:35:00,28.2,9.1,29.65,WSW,248,0.0,0.8,44,0.00,CLR,,0.00,WeatherDisplay:10.37,2013-03-23 18:35:00,
2013-03-23 12:40:00,28.2,9.6,29.65,SW,225,0.0,0.8,45,0.00,CLR,,0.00,WeatherDisplay:10.37,2013-03-23 18:40:00,
2013-03-23 12:45:00,28.2,10.1,29.65,SW,225,0.0,0.0,46,0.00,CLR,,0.00,WeatherDisplay:10.37,2013-03-23 18:45:00,
2013-03-23 12:50:00,28.4,9.7,29.65,WSW,248,0.0,0.0,45,0.00,CLR,,0.00,WeatherDisplay:10.37,2013-03-23 18:50:00,
2013-03-23 12:55:00,28.9,10.7,29.65,East,90,0.0,0.0,46,0.00,CLR,,0.00,WeatherDisplay:10.37,2013-03-23 18:55:00,
2013-03-23 13:00:00,29.1,10.9,29.65,NNW,338,0.0,0.0,46,0.00,CLR,,0.00,WeatherDisplay:10.37,2013-03-23 19:00:00,
2013-03-23 13:05:00,29.7,11.4,29.65,SSW,202,1.1,1.1,46,0.00,CLR,,0.00,WeatherDisplay:10.37,2013-03-23 19:05:00,
2013-03-23 13:10:00,30.0,11.7,29.64,ESE,112,2.3,2.3,46,0.00,CLR,,0.00,WeatherDisplay:10.37,2013-03-23 19:10:00,
2013-03-23 13:15:00,30.4,10.5,29.64,SSW,202,3.1,3.1,43,0.00,CLR,,0.00,WeatherDisplay:10.37,2013-03-23 19:15:00,
2013-03-23 13:20:00,30.4,11.0,29.64,WSW,248,0.0,0.5,44,0.00,CLR,,0.00,WeatherDisplay:10.37,2013-03-23 19:20:00,
2013-03-23 13:25:00,30.7,10.8,29.64,WSW,248,0.0,0.3,43,0.00,CLR,,0.00,WeatherDisplay:10.37,2013-03-23 19:25:00,
2013-03-23 13:30:00,30.7,10.3,29.63,SSE,158,4.6,4.6,42,0.00,CLR,,0.00,WeatherDisplay:10.37,2013-03-23 19:30:00,
2013-03-23 13:35:00,31.1,10.6,29.63,WSW,248,0.0,1.1,42,0.00,CLR,,0.00,WeatherDisplay:10.37,2013-03-23 19:35:00,
2013-03-23 13:40:00,31.8,11.8,29.63,WNW,292,0.0,0.8,43,0.00,CLR,,0.00,WeatherDisplay:10.37,2013-03-23 19:40:00,
2013-03-23 13:46:00,32.9,12.8,29.63,South,180,0.0,0.1,43,0.00,CLR,,0.00,WeatherDisplay:10.37,2013-03-23 19:46:00,
2013-03-23 13:51:00,33.1,12.4,29.62,SSE,158,0.0,0.1,42,0.00,CLR,,0.00,WeatherDisplay:10.37,2013-03-23 19:51:00,
2013-03-23 13:56:00,33.3,11.5,29.62,SW,225,0.0,0.0,40,0.00,CLR,,0.00,WeatherDisplay:10.37,2013-03-23 19:56:00,
2013-03-23 14:01:00,32.4,10.7,29.62,NW,315,1.1,1.1,40,0.00,CLR,,0.00,WeatherDisplay:10.37,2013-03-23 20:01:00,
2013-03-23 14:06:00,31.8,10.2,29.62,SSW,202,0.0,0.2,40,0.00,CLR,,0.00,WeatherDisplay:10.37,2013-03-23 20:06:00,
2013-03-23 14:11:00,31.8,10.2,29.62,SW,225,0.0,0.1,40,0.00,CLR,,0.00,WeatherDisplay:10.37,2013-03-23 20:11:00,
2013-03-23 14:16:00,31.1,9.6,29.62,West,270,0.0,0.1,40,0.00,CLR,,0.00,WeatherDisplay:10.37,2013-03-23 20:16:00,
2013-03-23 14:22:00,31.3,10.3,29.62,SW,225,0.0,0.0,41,0.00,CLR,,0.00,WeatherDisplay:10.37,2013-03-23 20:22:00,
2013-03-23 14:27:00,31.5,10.4,29.62,WSW,248,0.0,0.0,41,0.00,CLR,,0.00,WeatherDisplay:10.37,2013-03-23 20:27:00,
2013-03-23 14:32:00,32.0,11.5,29.62,NE,45,0.0,0.0,42,0.00,CLR,,0.00,WeatherDisplay:10.37,2013-03-23 20:32:00,
2013-03-23 14:37:00,32.5,11.4,29.62,SW,225,5.8,5.8,41,0.00,CLR,,0.00,WeatherDisplay:10.37,2013-03-23 20:37:00,
2013-03-23 14:42:00,31.8,10.2,29.62,WSW,248,6.9,6.9,40,0.00,CLR,,0.00,WeatherDisplay:10.37,2013-03-23 20:42:00,
2013-03-23 14:47:00,32.2,11.6,29.62,NW,315,0.0,1.7,42,0.00,CLR,,0.00,WeatherDisplay:10.37,2013-03-23 20:47:00,
2013-03-23 14:52:00,32.9,12.3,29.62,West,270,0.0,0.1,42,0.00,CLR,,0.00,WeatherDisplay:10.37,2013-03-23 20:52:00,
2013-03-23 14:57:00,32.9,12.3,29.62,SSE,158,0.0,0.3,42,0.00,CLR,,0.00,WeatherDisplay:10.37,2013-03-23 20:57:00,
2013-03-23 15:02:00,32.7,12.7,29.62,ENE,68,3.5,3.5,43,0.00,CLR,,0.00,WeatherDisplay:10.37,2013-03-23 21:02:00,
2013-03-23 15:07:00,32.9,13.3,29.61,North,0,2.3,2.3,44,0.00,CLR,,0.00,WeatherDisplay:10.37,2013-03-23 21:07:00,
2013-03-23 15:12:00,32.7,13.2,29.61,South,180,2.3,2.3,44,0.00,CLR,,0.00,WeatherDisplay:10.37,2013-03-23 21:12:00,
2013-03-23 15:17:00,32.9,13.3,29.61,NW,315,0.0,0.3,44,0.00,CLR,,0.00,WeatherDisplay:10.37,2013-03-23 21:17:00,
2013-03-23 15:22:00,33.3,13.7,29.61,NNW,338,0.0,0.0,44,0.00,CLR,,0.00,WeatherDisplay:10.37,2013-03-23 21:22:00,
2013-03-23 15:27:00,33.8,14.2,29.61,SW,225,0.0,0.0,44,0.00,CLR,,0.00,WeatherDisplay:10.37,2013-03-23 21:27:00,
2013-03-23 15:33:00,33.6,14.0,29.61,ESE,112,2.3,0.0,44,0.00,CLR,,0.00,WeatherDisplay:10.37,2013-03-23 21:33:00,
2013-03-23 15:38:00,33.6,13.5,29.61,NNW,338,0.0,0.3,43,0.00,CLR,,0.00,WeatherDisplay:10.37,2013-03-23 21:38:00,
2013-03-23 15:43:00,33.4,11.7,29.61,SSE,158,0.0,0.3,40,0.00,CLR,,0.00,WeatherDisplay:10.37,2013-03-23 21:43:00,
2013-03-23 15:48:00,32.7,11.6,29.61,SSW,202,2.3,2.3,41,0.00,CLR,,0.00,WeatherDisplay:10.37,2013-03-23 21:48:00,
2013-03-23 15:53:00,32.5,12.0,29.61,WSW,248,2.3,2.3,42,0.00,CLR,,0.00,WeatherDisplay:10.37,2013-03-23 21:53:00,
2013-03-23 15:58:00,31.8,11.8,29.61,East,90,0.0,2.0,43,0.00,CLR,,0.00,WeatherDisplay:10.37,2013-03-23 21:58:00,
2013-03-23 16:03:00,31.8,11.8,29.61,WSW,248,3.5,3.5,43,0.00,CLR,,0.00,WeatherDisplay:10.37,2013-03-23 22:03:00,
2013-03-23 16:08:00,31.5,11.5,29.58,WSW,248,2.3,2.3,43,0.00,CLR,,0.00,WeatherDisplay:10.37,2013-03-23 22:08:00,
2013-03-23 16:13:00,31.5,11.5,29.58,SE,135,4.6,4.6,43,0.00,CLR,,0.00,WeatherDisplay:10.37,2013-03-23 22:13:00,
2013-03-23 16:18:00,31.8,12.4,29.58,South,180,0.0,1.1,44,0.00,CLR,,0.00,WeatherDisplay:10.37,2013-03-23 22:18:00,
2013-03-23 16:23:00,32.0,12.5,29.58,SSW,202,2.3,2.3,44,0.00,CLR,,0.00,WeatherDisplay:10.37,2013-03-23 22:23:00,
2013-03-23 16:28:00,32.5,13.0,29.61,SSW,202,2.3,2.3,44,0.00,CLR,,0.00,WeatherDisplay:10.37,2013-03-23 22:28:00,
2013-03-23 16:33:00,32.7,13.2,29.61,SW,225,0.0,0.6,44,0.00,CLR,,0.00,WeatherDisplay:10.37,2013-03-23 22:33:00,
2013-03-23 16:38:00,32.5,12.0,29.61,SSW,202,0.0,0.1,42,0.00,CLR,,0.00,WeatherDisplay:10.37,2013-03-23 22:38:00,
2013-03-23 16:43:00,32.5,12.5,29.61,SW,225,2.3,2.3,43,0.00,CLR,,0.00,WeatherDisplay:10.37,2013-03-23 22:43:00,
2013-03-23 16:48:00,32.2,12.2,29.62,SE,135,1.1,1.4,43,0.00,CLR,,0.00,WeatherDisplay:10.37,2013-03-23 22:48:00,
2013-03-23 16:53:00,31.6,11.1,29.62,South,180,0.0,0.9,42,0.00,CLR,,0.00,WeatherDisplay:10.37,2013-03-23 22:53:00,
2013-03-23 16:58:00,30.9,11.5,29.62,SE,135,5.8,5.8,44,0.00,CLR,,0.00,WeatherDisplay:10.37,2013-03-23 22:58:00,
2013-03-23 17:03:00,30.7,11.9,29.62,SSW,202,3.5,3.5,45,0.00,CLR,,0.00,WeatherDisplay:10.37,2013-03-23 23:03:00,
2013-03-23 17:08:00,30.0,11.7,29.57,WSW,248,2.3,3.1,46,0.00,CLR,,0.00,WeatherDisplay:10.37,2013-03-23 23:08:00,
2013-03-23 17:13:00,29.7,11.9,29.57,SSW,202,5.8,5.8,47,0.00,CLR,,0.00,WeatherDisplay:10.37,2013-03-23 23:13:00,
2013-03-23 17:18:00,29.7,11.9,29.57,West,270,5.8,5.8,47,0.00,CLR,,0.00,WeatherDisplay:10.37,2013-03-23 23:18:00,
2013-03-23 17:23:00,29.7,11.9,29.57,ESE,112,0.0,1.4,47,0.00,CLR,,0.00,WeatherDisplay:10.37,2013-03-23 23:23:00,
2013-03-23 17:28:00,29.7,11.9,29.56,SE,135,0.0,0.1,47,0.00,CLR,,0.00,WeatherDisplay:10.37,2013-03-23 23:28:00,
2013-03-23 17:34:00,29.7,11.9,29.56,SSW,202,0.0,0.0,47,0.00,CLR,,0.00,WeatherDisplay:10.37,2013-03-23 23:34:00,
2013-03-23 17:39:00,29.7,11.9,29.56,SW,225,2.3,2.3,47,0.00,CLR,,0.00,WeatherDisplay:10.37,2013-03-23 23:39:00,
2013-03-23 17:44:00,29.3,11.5,29.56,East,90,3.5,3.5,47,0.00,CLR,,0.00,WeatherDisplay:10.37,2013-03-23 23:44:00,
2013-03-23 17:49:00,29.3,11.5,29.55,SW,225,0.0,0.3,47,0.00,CLR,,0.00,WeatherDisplay:10.37,2013-03-23 23:49:00,
2013-03-23 17:54:00,29.7,11.9,29.55,South,180,2.3,2.3,47,0.00,CLR,,0.00,WeatherDisplay:10.37,2013-03-23 23:54:00,
2013-03-23 17:59:00,29.8,12.0,29.55,SSW,202,0.0,0.1,47,0.00,CLR,,0.00,WeatherDisplay:10.37,2013-03-23 23:59:00,
2013-03-23 18:04:00,30.0,12.2,29.55,SSE,158,0.0,0.0,47,0.00,CLR,,0.00,WeatherDisplay:10.37,2013-03-24 00:04:00,
2013-03-23 18:09:00,30.4,12.5,29.58,East,90,1.5,1.5,47,0.00,CLR,,0.00,WeatherDisplay:10.37,2013-03-24 00:09:00,
2013-03-23 18:14:00,30.7,12.9,29.58,SW,225,0.0,0.3,47,0.00,CLR,,0.00,WeatherDisplay:10.37,2013-03-24 00:14:00,
2013-03-23 18:19:00,31.1,12.7,29.58,WSW,248,0.0,0.1,46,0.00,CLR,,0.00,WeatherDisplay:10.37,2013-03-24 00:19:00,
2013-03-23 18:24:00,30.6,12.2,29.58,West,270,0.0,0.0,46,0.00,CLR,,0.00,WeatherDisplay:10.37,2013-03-24 00:24:00,
2013-03-23 18:29:00,30.4,12.0,29.57,SW,225,0.0,0.0,46,0.00,CLR,,0.00,WeatherDisplay:10.37,2013-03-24 00:29:00,
2013-03-23 18:34:00,30.4,11.5,29.57,SE,135,0.0,0.0,45,0.00,CLR,,0.00,WeatherDisplay:10.37,2013-03-24 00:34:00,
2013-03-23 18:39:00,30.4,11.5,29.57,SE,135,0.0,0.0,45,0.00,CLR,,0.00,WeatherDisplay:10.37,2013-03-24 00:39:00,
2013-03-23 18:44:00,30.4,11.5,29.57,SW,225,0.0,0.0,45,0.00,CLR,,0.00,WeatherDisplay:10.37,2013-03-24 00:44:00,
2013-03-23 18:49:00,30.0,11.2,29.54,SE,135,0.0,0.0,45,0.00,CLR,,0.00,WeatherDisplay:10.37,2013-03-24 00:49:00,
2013-03-23 18:54:00,29.7,11.4,29.54,East,90,0.0,0.0,46,0.00,CLR,,0.00,WeatherDisplay:10.37,2013-03-24 00:54:00,
2013-03-23 18:59:00,29.5,11.2,29.54,SE,135,0.0,0.0,46,0.00,CLR,,0.00,WeatherDisplay:10.37,2013-03-24 00:59:00,
2013-03-23 19:04:00,28.9,10.7,29.54,WNW,292,0.0,0.0,46,0.00,CLR,,0.00,WeatherDisplay:10.37,2013-03-24 01:04:00,
2013-03-23 19:09:00,28.9,10.7,29.54,South,180,0.0,0.0,46,0.00,CLR,,0.00,WeatherDisplay:10.37,2013-03-24 01:09:00,
2013-03-23 19:14:00,28.2,10.1,29.54,WSW,248,0.0,0.1,46,0.00,CLR,,0.00,WeatherDisplay:10.37,2013-03-24 01:14:00,
2013-03-23 19:19:00,28.0,9.9,29.54,WSW,248,0.0,0.1,46,0.00,CLR,,0.00,WeatherDisplay:10.37,2013-03-24 01:19:00,
2013-03-23 19:24:00,27.7,9.6,29.54,WSW,248,0.0,0.0,46,0.00,CLR,,0.00,WeatherDisplay:10.37,2013-03-24 01:24:00,
2013-03-23 19:29:00,27.5,9.4,29.54,North,0,0.0,0.0,46,0.00,CLR,,0.00,WeatherDisplay:10.37,2013-03-24 01:29:00,
2013-03-23 19:34:00,27.1,9.5,29.54,SSE,158,0.0,0.0,47,0.00,CLR,,0.00,WeatherDisplay:10.37,2013-03-24 01:34:00,
2013-03-23 19:39:00,26.8,9.2,29.54,SW,225,0.0,0.0,47,0.00,CLR,,0.00,WeatherDisplay:10.37,2013-03-24 01:39:00,
2013-03-23 19:44:00,26.6,9.1,29.54,ESE,112,0.0,0.0,47,0.00,CLR,,0.00,WeatherDisplay:10.37,2013-03-24 01:44:00,
2013-03-23 19:49:00,26.4,8.9,29.54,East,90,0.0,0.0,47,0.00,CLR,,0.00,WeatherDisplay:10.37,2013-03-24 01:49:00,
2013-03-23 19:54:00,26.1,8.6,29.54,SSE,158,0.0,0.0,47,0.00,CLR,,0.00,WeatherDisplay:10.37,2013-03-24 01:54:00,
2013-03-23 19:59:00,26.1,8.6,29.54,NNE,22,0.0,0.0,47,0.00,CLR,,0.00,WeatherDisplay:10.37,2013-03-24 01:59:00,
2013-03-23 20:04:00,25.7,8.7,29.54,SSW,202,0.0,0.2,48,0.00,CLR,,0.00,WeatherDisplay:10.37,2013-03-24 02:04:00,
2013-03-23 20:09:00,25.5,9.0,29.54,SSW,202,0.0,0.2,49,0.00,CLR,,0.00,WeatherDisplay:10.37,2013-03-24 02:09:00,
2013-03-23 20:14:00,25.3,9.3,29.54,WSW,248,0.0,0.0,50,0.00,CLR,,0.00,WeatherDisplay:10.37,2013-03-24 02:14:00,
2013-03-23 20:19:00,25.3,9.3,29.54,WSW,248,0.0,0.0,50,0.00,CLR,,0.00,WeatherDisplay:10.37,2013-03-24 02:19:00,
2013-03-23 20:24:00,25.3,9.3,29.54,SSW,202,0.0,0.0,50,0.00,CLR,,0.00,WeatherDisplay:10.37,2013-03-24 02:24:00,
2013-03-23 20:29:00,25.3,9.3,29.53,West,270,0.0,0.0,50,0.00,CLR,,0.00,WeatherDisplay:10.37,2013-03-24 02:29:00,
2013-03-23 20:34:00,25.3,9.3,29.53,SSW,202,0.0,0.0,50,0.00,CLR,,0.00,WeatherDisplay:10.37,2013-03-24 02:34:00,
2013-03-23 20:40:00,25.0,9.4,29.53,ENE,68,0.0,0.0,51,0.00,CLR,,0.00,WeatherDisplay:10.37,2013-03-24 02:40:00,
2013-03-23 20:45:00,25.0,9.4,29.53,NNW,338,0.0,0.0,51,0.00,CLR,,0.00,WeatherDisplay:10.37,2013-03-24 02:45:00,
2013-03-23 20:50:00,24.6,9.0,29.55,SSW,202,0.0,0.2,51,0.00,CLR,,0.00,WeatherDisplay:10.37,2013-03-24 02:50:00,
2013-03-23 20:55:00,24.4,8.9,29.55,South,180,2.3,2.3,51,0.00,CLR,,0.00,WeatherDisplay:10.37,2013-03-24 02:55:00,
2013-03-23 21:00:00,24.3,9.1,29.55,ENE,68,0.0,0.3,52,0.00,CLR,,0.00,WeatherDisplay:10.37,2013-03-24 03:00:00,
2013-03-23 21:05:00,24.1,9.0,29.55,ENE,68,0.0,0.2,52,0.00,CLR,,0.00,WeatherDisplay:10.37,2013-03-24 03:05:00,
2013-03-23 21:10:00,23.9,8.8,29.56,East,90,0.0,0.0,52,0.00,CLR,,0.00,WeatherDisplay:10.37,2013-03-24 03:10:00,
2013-03-23 21:15:00,23.9,8.8,29.56,ENE,68,0.0,0.0,52,0.00,CLR,,0.00,WeatherDisplay:10.37,2013-03-24 03:15:00,
2013-03-23 21:20:00,23.9,8.8,29.56,North,0,0.0,0.0,52,0.00,CLR,,0.00,WeatherDisplay:10.37,2013-03-24 03:20:00,
2013-03-23 21:25:00,23.9,9.2,29.56,North,0,0.0,0.0,53,0.00,CLR,,0.00,WeatherDisplay:10.37,2013-03-24 03:25:00,
2013-03-23 21:30:00,23.5,8.9,29.55,North,0,0.0,0.0,53,0.00,CLR,,0.00,WeatherDisplay:10.37,2013-03-24 03:30:00,
2013-03-23 21:35:00,23.5,8.9,29.55,North,0,0.0,0.0,53,0.00,CLR,,0.00,WeatherDisplay:10.37,2013-03-24 03:35:00,
2013-03-23 21:40:00,23.5,8.9,29.55,NNE,22,0.0,0.0,53,0.00,CLR,,0.00,WeatherDisplay:10.37,2013-03-24 03:40:00,
2013-03-23 21:45:00,23.2,8.6,29.55,NE,45,0.0,0.0,53,0.00,CLR,,0.00,WeatherDisplay:10.37,2013-03-24 03:45:00,
2013-03-23 21:50:00,23.2,9.0,29.56,NE,45,0.0,0.0,54,0.00,CLR,,0.00,WeatherDisplay:10.37,2013-03-24 03:50:00,
2013-03-23 21:55:00,23.2,9.0,29.56,North,0,0.0,0.0,54,0.00,CLR,,0.00,WeatherDisplay:10.37,2013-03-24 03:55:00,
2013-03-23 22:00:00,22.8,8.6,29.56,North,0,0.0,0.0,54,0.00,CLR,,0.00,WeatherDisplay:10.37,2013-03-24 04:00:00,
2013-03-23 22:01:00,22.8,8.6,29.56,North,0,0.0,0.0,54,0.00,CLR,,0.00,WeatherDisplay:10.37,2013-03-24 04:01:00,
2013-03-23 23:55:00,18.1,5.1,29.58,North,0,0.0,0.0,56,0.00,CLR,,0.00,WeatherDisplay:10.37,2013-03-24 05:55:00,